Location: Chmeli�t?
(49.8978°N, 15.0526°E)
Time: 06:28:34
(UTC+00:00)

Cosmos 2074 Rocket - Pass Details

Date: 04 October 2020
Orbit: 967 x 987 km, 82.9° (Epoch: 30 October)

Event Time Altitude Azimuth Distance (km) Brightness Sun altitude
Rises 20:24:39 0° 355° (N) 3,695 7.6 -35.7°
Reaches altitude 10° 20:27:34 10° 7° (N) 2,740 6.7 -36.0°
Enters shadow 20:29:58 20° 25° (NNE) 2,084 5.8 -36.3°
